Regional Weather Roundup
Issued by NWS

Home | Current Version | Previous Version | Text Only | Print | Product List | Glossary Off
Versions: 1 2 3 4 5 6 7 8 9 10 11 12 13 14 15 16 17 18 19 20 21 22 23 24 25 26 27 28 29 30 31 32 33 34 35 36 37 38 39 40 41 42 43 44 45 46 47 48 49 50

000
ASUS43 KMKX 211800
RWRWI

WISCONSIN REGIONAL WEATHER ROUNDUP
NATIONAL WEATHER SERVICE MILWAUKEE/SULLIVAN WI
100 PM CDT THU AUG 21 2014

NOTE: "FAIR" INDICATES FEW OR NO CLOUDS BELOW 12,000 FEET WITH NO
SIGNIFICANT WEATHER AND/OR OBSTRUCTIONS TO VISIBILITY.

WIZ001-002-006>008-014>016-023>028-211900-
NORTHWEST WISCONSIN

CITY           SKY/WX    TMP DP  RH WIND       PRES   REMARKS
SUPERIOR ARPT  CLOUDY    62  61  96 NE12G18   29.87S
ASHLAND        CLOUDY    69  64  84 N10       29.89S
6HR MIN TEMP:  58; 6HR MAX TEMP:  70;

HAYWARD        CLOUDY    73  69  87 SE6       29.88R
6HR MIN TEMP:  61; 6HR MAX TEMP:  73; 6HR PCP:  0.20;

SIREN          CLOUDY    71  68  88 E5        29.84S
RICE LAKE      CLOUDY    73  67  81 SE10      29.86S
6HR MIN TEMP:  64; 6HR MAX TEMP:  74; 6HR PCP:  0.01;

LADYSMITH      CLOUDY    73  69  86 SE10G16   29.88F
EAU CLAIRE     CLOUDY    74  69  85 SE10      29.84S
MENOMONIE      CLOUDY    76  69  79 E9        29.83S
6HR MIN TEMP:  66; 6HR MAX TEMP:  76; 6HR PCP:  0.39;

NEW RICHMOND   CLOUDY    73  70  90 SE6       29.82S
OSCEOLA        CLOUDY    73  71  93 E9        29.83S
$$

WIZ003>005-009-010-017-018-211900-
NORTH CENTRAL WISCONSIN

CITY           SKY/WX    TMP DP  RH WIND       PRES   REMARKS
WOODRUFF       CLOUDY    72  66  82 SE9       29.95S
RHINELANDER    CLOUDY    67  63  87 SE8       29.96F
6HR MIN TEMP:  60; 6HR MAX TEMP:  67;

EAGLE RIVER    CLOUDY    67  64  88 S7        29.96S
LAND O LAKES   CLOUDY    69  63  80 SE6       29.97S
PHILLIPS       CLOUDY    67  65  96 SE8       29.91S
6HR MIN TEMP:  59; 6HR MAX TEMP:  67; 6HR PCP:  0.05;

TOMAHAWK       DRIZZLE   65  64  97 SE5       29.94F
MEDFORD        CLOUDY    66  65  97 SE7       29.91F
MERRILL        CLOUDY    67  66  97 SE8       29.93F
$$

WIZ029-030-035-036-043>047-211900-
CENTRAL WISCONSIN

CITY           SKY/WX    TMP DP  RH WIND       PRES   REMARKS
WAUSAU         CLOUDY    66  65  96 SE8       29.91F
6HR MIN TEMP:  61; 6HR MAX TEMP:  66; 6HR PCP:  0.17;

MOSINEE        CLOUDY    66  66 100 E9G16     29.92F FOG
MARSHFIELD     CLOUDY    75  68  78 E9        29.88F
6HR MIN TEMP:  64; 6HR MAX TEMP:  75; 6HR PCP:  0.33;

STEVENS POINT  CLOUDY    66  65  96 E7        29.93F
WAUPACA        DRIZZLE   69  67  94 E5        29.93F
WAUTOMA        NOT AVBL
WISC RAPIDS    CLOUDY    72  68  87 SE8       29.90F
6HR MIN TEMP:  64; 6HR MAX TEMP:  73; 6HR PCP:  0.94;

CAMP DOUGLAS   NOT AVBL
$$

WIZ011>013-019>022-031-037>040-048>050-211900-
NORTHEAST WISCONSIN

CITY           SKY/WX    TMP DP  RH WIND       PRES   REMARKS
ANTIGO         LGT RAIN  65  64  96 SE12      29.97F
STURGEON BAY   CLOUDY    66  61  82 SE7       29.98F
6HR MIN TEMP:  61; 6HR MAX TEMP:  66;

GREEN BAY      LGT RAIN  68  65  90 SE7       29.97S
6HR MIN TEMP:  63; 6HR MAX TEMP:  71; 6HR PCP:  0.03;

MANITOWOC      NOT AVBL
APPLETON       LGT RAIN  66  66 100 VRB5      29.96F FOG
CLINTONVILLE   LGT RAIN  68  64  88 E6        29.95F
OSHKOSH        RAIN      70  69  97 SE9       29.93F FOG
6HR MIN TEMP:  68; 6HR MAX TEMP:  70; 6HR PCP:  0.25;

$$

WIZ032>034-041-042-053>061-211900-
SOUTHWEST WISCONSIN

CITY           SKY/WX    TMP DP  RH WIND       PRES   REMARKS
LA CROSSE      CLOUDY    79  70  74 S10       29.84S HX  82
6HR MIN TEMP:  70; 6HR MAX TEMP:  79; 6HR PCP:  0.34;

SPARTA         PTSUNNY   75  67  76 E7        29.88R
VIROQUA        CLOUDY    74  73  98 S8        29.89R
BOSCOBEL       LGT RAIN  74  71  91 NE10      29.84F
6HR MIN TEMP:  70; 6HR MAX TEMP:  74; 6HR PCP:  0.40;

PRAIRIE DU CHI CLOUDY    75  71  86 S7        29.84F
PLATTEVILLE    FAIR      74  72  95 CALM      29.95R
$$

WIZ056-057-062-063-064-067-068-211900-
SOUTH CENTRAL WISCONSIN

CITY           SKY/WX    TMP DP  RH WIND       PRES   REMARKS
BARABOO/DELLS  CLOUDY    70  68  93 E10       29.89S
LONE ROCK      NOT AVBL
WATERTOWN      RAIN      69  69 100 E3        29.98F
MADISON        CLOUDY    72  70  93 E6        29.94F
6HR MIN TEMP:  70; 6HR MAX TEMP:  72; 6HR PCP:  0.61;

MIDDLETON      MOCLDY    72  72 100 SE8       29.93F
MONROE         CLOUDY    72  70  94 CALM      29.96R
JANESVILLE     MOSUNNY   73  70  88 E5        29.94F
$$

WIZ051-052-058>065-066-070>072-211900-
SOUTHEAST WISCONSIN

CITY           SKY/WX    TMP DP  RH WIND       PRES   REMARKS
MILWAUKEE      LGT RAIN  71  67  87 NW6       30.01R
6HR MIN TEMP:  68; 6HR MAX TEMP:  74; 6HR PCP:  0.02;

WAUKESHA       RAIN      70  68  94 NW5       30.02R FOG
MILWAUKEE/TIMM RAIN      70  66  88 NW3       30.01R
RACINE         LGT RAIN  73  69  87 CALM      30.00R
6HR MIN TEMP:  68; 6HR MAX TEMP:  76; 6HR PCP: TRACE;

BURLINGTON     RAIN      70  68  95 W3        30.01R
KENOSHA        LGT RAIN  73  71  93 W3        29.98R
6HR MIN TEMP:  67; 6HR MAX TEMP:  77; 6HR PCP:  0.03;

FOND DU LAC    RAIN      69  67  93 SE9       29.95F FOG
6HR MIN TEMP:  65; 6HR MAX TEMP:  71; 6HR PCP:  0.31;

SHEBOYGAN      LGT RAIN  68  65  90 SW7       30.00R FOG
6HR MIN TEMP:  61; 6HR MAX TEMP:  70; 6HR PCP:  0.04;

WEST BEND      HVY RAIN  66  63  88 CALM      30.02R
JUNEAU         CLOUDY    68  42  38 E9        29.97F
$$

LSZ147-162-211900-
LAKE SUPERIOR

STATION/POSITION TIME  TEMP    WIND        PRES    WAVE
                       AIR SEA DIR/SP/G            HT/PER
                 (UTC) (F)     (DEG/KT/KT) (MB)    (FT/S)
W MID LAKE BUOY  1650   59 59   60/ 12/ 14 1013.5F   1
PORT WING        1740   67      30/ 14/ 16 1011.9F
SAXON HARBOR     1700   65      40/  6/  8 1012.5S
$$

LMZ867-665-643>646-211900-
LAKE MICHIGAN

STATION/POSITION TIME  TEMP    WIND        PRES    WAVE
                       AIR SEA DIR/SP/G            HT/PER
                 (UTC) (F)     (DEG/KT/KT) (MB)    (FT/S)
N MID LAKE BUOY  1650   64 64  160/  6/  6 1014.9R   0
NORTHPORT PIER   1700   65     130/  6/  7 1015.2R
SISTER BAY       1626   71     140/ 10/ 12   N/A
KEWAUNEE LAKESHO 1700   65     100/  3/  4 1014.1F
SHEBOYGAN LAKESH 1700   67 65  100/  1/  1 1014.8R
ATWATER BUOY     1700   68     120/  4/  6 1015.1S
MILWAUKEE LAKESH 1700   69     130/  5/  6   N/A
S MID LAKE BUOY  1650   69 69  120/  2/  4 1013.8R   0
KENOSHA   LAKESH 1700   71     160/  8/  9 1013.5F
$$

TC  - TEMPERATURE IN CELSIUS
VSB - VISIBILITY IN STATUTE MILES
WCI - WIND CHILL INDEX
HX  - HEAT INDEX



USA.gov is the U.S. government's official web portal to all federal, state and local government web resources and services.